Simultaneous Nadir Overpasses (SNOs) Predictions

Prediction of SNOs between GOES-16 and TERRA Satellite Orbit:

Table of predicted SNOs for the next 14.0 days since TLE Epoch: 11/19/2022
Index Date Time (GOES-16) GOES-16 Lat,Lon TERRA Lat,Lon Distance(km) Time Diff (sec)
1 11/19/2022 15:30:13 -0.05, -75.20 0.69, -78.80 408.21 80
2 11/21/2022 15:11:52 -0.05, -75.21 -0.11, -75.01 24.07 80
3 11/23/2022 14:56:10 -0.05, -75.22 -0.87, -71.20 456.24 80
4 11/24/2022 03:19:20 0.04, -75.21 -0.18, -76.18 111.40 80
5 11/26/2022 03:00:59 0.04, -75.22 0.65, -72.39 321.05 80
6 11/26/2022 15:21:20 -0.03, -75.24 0.42, -77.33 238.66 80
7 11/28/2022 15:08:19 -0.03, -75.25 -0.42, -73.55 194.39 80
8 11/29/2022 03:28:47 0.02, -75.24 -0.68, -78.52 372.78 80
9 12/01/2022 03:10:26 0.02, -75.26 0.12, -74.72 61.43 80
10 12/01/2022 15:30:47 -0.02, -75.29 0.90, -79.67 497.95 80
